[[{"header":{"parameterUnit":"m.s-1","parameterCategory":1,"la1":30.2991,"la2":30.254,"lo1":-89.0895,"lo2":-89.0444,"dy":0.0017,"dx":0.0017,"nx":28,"ny":28,"refTime":"2024-07-21T21:00:00:Z","depth":0,"parameterNumber":2,"parameterNumberName":"U-component_of_WINDS"},"data":[0,0,0,0,0,0,0,0,0,0,0,0,0,0,0,0,0,0,0,0,0,0,0,0,0,0,0,0,0,0,0,0,0,0,0,0,0,0,0,0,0,0,0,0,0,0,0,0,0,0,0,0,0,0,0,0,0,0,0.3105,0.3106,0,0.3216,0.3217,0.3219,0.3272,0.3272,0.3272,0.3272,0.3385,0.3388,0.3391,0,0,0,0,0,0,0,0,0,0,0,0,0,0.2937,0.294,0.3105,0.3107,0.3108,0.3216,0.3218,0.3219,0.3272,0.3272,0.3272,0.3272,0.3384,0.3387,0.3391,0,0,0,0,0,0,0,0,0,0,0,0,0,0.3025,0.2941,0.3105,0.3147,0.3152,0.3216,0.3218,0.3219,0.3272,0.3272,0.3272,0.3272,0.3383,0.3387,0.3391,0.3421,0,0,0.3405,0.3407,0,0,0,0,0,0,0,0,0.302,0.3031,0.314,0.3145,0.315,0.323,0.32,0.3287,0.3272,0.3227,0.3272,0.3272,0.3333,0.3342,0.3363,0.3426,0.3431,0.3406,0.3408,0.341,0.3412,0,0,0,0,0,0,0,0.3014,0.3027,0.3149,0.3141,0.3148,0.316,0.3173,0.3216,0.3279,0.3231,0.3235,0.3247,0.3336,0.3358,0.3366,0.3432,0.3406,0.341,0.3412,0.3414,0.3524,0.3524,0,0,0,0,0,0,0.3001,0.3021,0.3146,0.3152,0.3084,0.3163,0.3177,0.3205,0.3279,0.329,0.3247,0.3249,0.3351,0.336,0.337,0.3409,0.341,0.3415,0.3417,0.3524,0.3524,0.3524,0,0,0,0,0,0,0.2997,0.3012,0.3141,0.3088,0.3106,0.3166,0.3197,0.3207,0.3229,0.3291,0.3302,0.3258,0.3351,0.3364,0.3407,0.3413,0.3417,0.3421,0.3523,0.3524,0.3524,0.3486,0,0,0,0,0,0,0.2992,0.301,0.3022,0.3088,0.3108,0.3177,0.3197,0.3209,0.3237,0.3241,0.3305,0.3315,0.3352,0.34,0.3412,0.342,0.3424,0.3523,0.3523,0.3524,0.3487,0.3485,0.3483,0,0,0,0,0,0.2986,0.3007,0.3023,0.3037,0.3125,0.3177,0.3189,0.3231,0.3237,0.325,0.3289,0.3313,0.341,0.3404,0.3418,0.3427,0.3523,0.3523,0.3524,0.3488,0.3485,0.3483,0,0,0,0,0,0,0.2941,0.3017,0.3035,0.3078,0.3121,0.3186,0.3204,0.3227,0.3269,0.3271,0.3321,0.3335,0.3374,0.3405,0.3397,0.3458,0.3469,0.3472,0.3437,0.3435,0.3433,0.3425,0.3428,0,0,0,0,0,0.2936,0.2973,0.3037,0.3069,0.3089,0.3142,0.3167,0.3195,0.3242,0.326,0.3303,0.3347,0.3387,0.3413,0.3453,0.3491,0.3506,0.3504,0.3502,0.35,0.3503,0.3524,0.3524,0.3525,0.3525,0.3525,0,0,0.2926,0.2972,0.2992,0.3061,0.3097,0.3134,0.3157,0.3195,0.3222,0.3266,0.331,0.3343,0.3395,0.3435,0.3455,0.3462,0.3505,0.3501,0.3499,0.3502,0.3524,0.3524,0.3524,0.3526,0.3525,0.3525,0,0,0.2927,0.2966,0.2996,0.3032,0.3087,0.3122,0.3129,0.3191,0.3214,0.3259,0.3292,0.3325,0.3394,0.3429,0.3456,0.3468,0.3492,0.348,0.347,0.349,0.349,0.3491,0.3495,0.3495,0.3482,0.3482,0.3482,0,0.2908,0.2965,0.3009,0.3045,0.3073,0.3114,0.3144,0.3177,0.3242,0.3261,0.3267,0.3354,0.3392,0.3441,0.3444,0.3464,0.3473,0.3473,0.3487,0.3487,0.3488,0.3493,0.3494,0.348,0.348,0.348,0.3481,0,0.2938,0.2977,0.2995,0.3056,0.3087,0.312,0.3168,0.3194,0.3219,0.3253,0.3297,0.3344,0.3394,0.3408,0.3433,0.346,0.3463,0.3477,0.3489,0.3486,0.3491,0.3493,0.3477,0.3478,0.3479,0.3479,0,0,0.2915,0.3,0.3006,0.3034,0.3097,0.3127,0.3161,0.321,0.3231,0.3274,0.3303,0.336,0.3373,0.3404,0.3433,0.3451,0.3457,0.3464,0.3466,0.3461,0.3489,0.3478,0.3479,0.3472,0.3473,0.3473,0.3485,0,0.2925,0.2988,0.3028,0.3076,0.3111,0.3149,0.3179,0.322,0.3252,0.3286,0.3322,0.3361,0.3376,0.3395,0.3414,0.3452,0.3463,0.3452,0.35,0.3501,0.3486,0.3482,0.347,0.3479,0.3487,0.3487,0.3487,0,0.2945,0.2987,0.3038,0.3095,0.3112,0.3138,0.3185,0.3218,0.3265,0.3287,0.332,0.3349,0.3386,0.3394,0.3444,0.3436,0.3457,0.3479,0.348,0.3487,0.3494,0.3488,0.3483,0.3484,0.3491,0.3491,0.349,0,0.2923,0.2992,0.3031,0.3054,0.3122,0.3139,0.3168,0.3215,0.3242,0.3283,0.3301,0.3346,0.337,0.3404,0.3444,0.3446,0.3491,0.3502,0.351,0.3508,0.3518,0.3517,0.3516,0.3531,0.3531,0.3531,0.3531,0,0.293,0.2959,0.3022,0.3046,0.3079,0.3124,0.3156,0.3188,0.3229,0.326,0.3295,0.3323,0.3374,0.3408,0.3439,0.3476,0.3487,0.3506,0.3514,0.3503,0.35,0.3518,0.3518,0.3532,0.3531,0.3531,0.3531,0,0.2911,0.2954,0.2999,0.306,0.3075,0.3098,0.3149,0.3174,0.3207,0.3245,0.3256,0.3308,0.335,0.3393,0.3449,0.347,0.3506,0.3517,0.349,0.3495,0.35,0.3499,0.3511,0.3514,0.3526,0.3526,0.3526,0,0.2913,0.2936,0.2999,0.3022,0.305,0.3087,0.3114,0.3158,0.3185,0.3239,0.3256,0.33,0.3338,0.3402,0.3445,0.3487,0.35,0.3501,0.3507,0.3495,0.35,0.3498,0.35,0.3499,0.3499,0.3499,0.3499,0,0.2911,0.2931,0.2969,0.3014,0.3045,0.3083,0.3121,0.3138,0.319,0.3218,0.326,0.3289,0.3346,0.3389,0.3437,0.3466,0.3491,0.3496,0.35,0.349,0.3473,0.3482,0.3485,0.3496,0.3496,0.3496,0.3497,0.3497,0.2903,0.2925,0.2972,0.3013,0.3047,0.3082,0.3107,0.3143,0.318,0.323,0.3253,0.3296,0.3341,0.3407,0.3436,0.3469,0.3476,0.3482,0.3484,0.3485,0.3482,0.3467,0.3478,0.3478,0.3478,0.3478,0.3479,0,0.2903,0.2935,0.2972,0.3025,0.3056,0.3076,0.312,0.3145,0.3182,0.3222,0.3258,0.3306,0.3347,0.3392,0.3436,0.3454,0.3467,0.3464,0.3464,0.347,0.3473,0.3465,0.3454,0.3454,0.3454,0.3454,0.3454,0.3454,0.2907,0.2945,0.297,0.3025,0.3057,0.3099,0.3122,0.3154,0.3186,0.3238,0.3273,0.3302,0.3344,0.3391,0.3429,0.3442,0.3456,0.3451,0.3466,0.3468,0.347,0.3472,0.3465,0.3453,0.3453,0.346,0.346,0.346]},{"header":{"parameterUnit":"m.s-1","parameterCategory":1,"la1":30.2991,"la2":30.254,"lo1":-89.0895,"lo2":-89.0444,"dy":0.0017,"dx":0.0017,"nx":28,"ny":28,"refTime":"2024-07-21T21:00:00:Z","depth":0,"parameterNumber":3,"parameterNumberName":"V-component_of_WINDS"},"data":[0,0,0,0,0,0,0,0,0,0,0,0,0,0,0,0,0,0,0,0,0,0,0,0,0,0,0,0,0,0,0,0,0,0,0,0,0,0,0,0,0,0,0,0,0,0,0,0,0,0,0,0,0,0,0,0,0,0,0.4866,0.4867,0,0.4929,0.4929,0.493,0.4911,0.4909,0.4908,0.4907,0.4973,0.4976,0.4979,0,0,0,0,0,0,0,0,0,0,0,0,0,0.4731,0.4733,0.4866,0.4867,0.4868,0.4928,0.4929,0.493,0.4911,0.4909,0.4908,0.4906,0.4972,0.4975,0.4979,0,0,0,0,0,0,0,0,0,0,0,0,0,0.4791,0.4734,0.4866,0.4865,0.4866,0.4928,0.4929,0.493,0.4911,0.4909,0.4907,0.4905,0.4971,0.4975,0.4979,0.5047,0,0,0.4993,0.4995,0,0,0,0,0,0,0,0,0.4788,0.4796,0.4865,0.4865,0.4866,0.491,0.4906,0.497,0.4912,0.4894,0.4907,0.4904,0.4954,0.4959,0.4975,0.505,0.5053,0.4993,0.4996,0.4998,0.4999,0,0,0,0,0,0,0,0.4784,0.4793,0.4891,0.4866,0.4867,0.4862,0.4869,0.4918,0.4934,0.4896,0.4894,0.4902,0.4954,0.4971,0.4977,0.5054,0.4993,0.4997,0.5,0.5002,0.5185,0.5187,0,0,0,0,0,0,0.4779,0.479,0.4889,0.4893,0.4821,0.4866,0.4873,0.4898,0.4934,0.4937,0.4903,0.4901,0.4964,0.4972,0.4979,0.506,0.4998,0.5002,0.5005,0.5183,0.5186,0.5188,0,0,0,0,0,0,0.4776,0.4788,0.4886,0.4841,0.4853,0.4871,0.4898,0.49,0.4918,0.494,0.4943,0.4918,0.4963,0.4973,0.503,0.5062,0.5004,0.5008,0.5181,0.5184,0.5187,0.5222,0,0,0,0,0,0,0.4772,0.4787,0.4813,0.4842,0.4856,0.4936,0.49,0.4903,0.4925,0.4922,0.4954,0.4958,0.4962,0.5023,0.5034,0.5067,0.5012,0.5178,0.5182,0.5186,0.5219,0.5227,0.5233,0,0,0,0,0,0.4767,0.4821,0.4814,0.4826,0.4888,0.4938,0.4946,0.495,0.4928,0.4954,0.4968,0.4957,0.5056,0.5029,0.5041,0.5076,0.5176,0.5181,0.5186,0.5215,0.5225,0.5233,0,0,0,0,0,0,0.4796,0.4825,0.4818,0.4882,0.4907,0.4934,0.4968,0.496,0.4993,0.4989,0.4992,0.5,0.5058,0.5073,0.5042,0.5143,0.5113,0.5121,0.5131,0.5141,0.5148,0.5144,0.5016,0,0,0,0,0,0.481,0.4847,0.487,0.4925,0.4938,0.4951,0.4972,0.4973,0.5,0.5011,0.5029,0.5056,0.5093,0.5117,0.5153,0.522,0.5227,0.525,0.5257,0.5263,0.527,0.5306,0.5317,0.5204,0.5204,0.5204,0,0,0.4839,0.4859,0.4883,0.4931,0.4951,0.499,0.496,0.5003,0.5032,0.5017,0.5072,0.5086,0.5116,0.5178,0.5207,0.5192,0.5302,0.527,0.5274,0.5278,0.5312,0.5323,0.5332,0.5208,0.5207,0.5207,0,0,0.4912,0.4931,0.4978,0.4998,0.5028,0.5036,0.5047,0.5075,0.5083,0.5138,0.5128,0.5162,0.5226,0.5248,0.5267,0.5346,0.5337,0.5358,0.5397,0.5432,0.5441,0.5449,0.5477,0.5487,0.5364,0.5364,0.5364,0,0.4945,0.5002,0.5003,0.5047,0.5068,0.5055,0.5103,0.5123,0.5163,0.5178,0.5161,0.5241,0.526,0.5327,0.5346,0.5362,0.5375,0.5355,0.5439,0.5447,0.5455,0.5482,0.5492,0.5367,0.5366,0.5366,0.5366,0,0.5041,0.5081,0.5116,0.5154,0.5179,0.5224,0.5232,0.5257,0.5255,0.5264,0.532,0.5342,0.5382,0.5397,0.5396,0.5464,0.5454,0.5438,0.5409,0.5468,0.5493,0.5503,0.537,0.5369,0.5368,0.5368,0,0,0.5136,0.5172,0.5185,0.5202,0.5233,0.5264,0.5308,0.5346,0.5367,0.5395,0.5433,0.5486,0.5471,0.5493,0.5494,0.5525,0.5585,0.5505,0.5506,0.5519,0.5661,0.5673,0.5685,0.5579,0.5581,0.5582,0.5658,0,0.5211,0.5289,0.529,0.5361,0.5398,0.5386,0.5424,0.5448,0.5457,0.549,0.55,0.5538,0.5516,0.5529,0.5559,0.5572,0.5614,0.5566,0.5614,0.5616,0.5608,0.5698,0.5711,0.5782,0.5668,0.567,0.5671,0,0.5311,0.534,0.5415,0.5439,0.5455,0.5489,0.5523,0.5555,0.5581,0.5585,0.5609,0.5604,0.565,0.5617,0.5679,0.5647,0.5666,0.5675,0.5678,0.5684,0.5648,0.5706,0.5805,0.5816,0.5687,0.5686,0.5684,0,0.5372,0.5431,0.5483,0.5497,0.5527,0.5552,0.5566,0.5589,0.5611,0.5641,0.5655,0.569,0.5709,0.5736,0.5741,0.5717,0.5803,0.5772,0.5809,0.5809,0.5829,0.5827,0.5932,0.584,0.584,0.584,0.5839,0,0.5457,0.5503,0.5511,0.5543,0.5594,0.5595,0.5645,0.5657,0.5678,0.5712,0.5703,0.5736,0.574,0.5773,0.5777,0.5828,0.5837,0.5842,0.5842,0.5843,0.5842,0.5857,0.5852,0.5842,0.5842,0.5841,0.5841,0,0.5535,0.5542,0.5598,0.5621,0.5628,0.5664,0.5684,0.5715,0.5723,0.5766,0.5776,0.5789,0.5827,0.5834,0.588,0.5883,0.5943,0.5939,0.5935,0.5934,0.5971,0.5967,0.6089,0.6105,0.6002,0.6003,0.6004,0,0.559,0.5625,0.5651,0.5673,0.5687,0.5723,0.5745,0.5746,0.577,0.5801,0.5827,0.5865,0.5895,0.5957,0.5971,0.6005,0.6002,0.6042,0.6007,0.6006,0.6003,0.6001,0.6004,0.6049,0.605,0.6051,0.6052,0,0.5685,0.5686,0.5718,0.575,0.5777,0.5803,0.5827,0.5846,0.5851,0.5877,0.5916,0.5939,0.5985,0.6022,0.6057,0.6071,0.6062,0.6062,0.6073,0.6074,0.607,0.6073,0.5953,0.606,0.6059,0.6058,0.6058,0.6058,0.5753,0.5783,0.5806,0.5841,0.586,0.5883,0.5912,0.5923,0.5955,0.5992,0.5991,0.6033,0.6057,0.6102,0.6118,0.6151,0.6139,0.6154,0.6158,0.6162,0.6165,0.6064,0.6158,0.6157,0.6157,0.6157,0.6157,0,0.5848,0.5862,0.5894,0.5928,0.5956,0.5944,0.597,0.5994,0.6031,0.6054,0.6083,0.6127,0.6163,0.6178,0.6213,0.6237,0.6234,0.6246,0.6245,0.6248,0.6175,0.6162,0.6248,0.6248,0.6248,0.6248,0.6248,0.6248,0.5901,0.5951,0.5955,0.6014,0.6027,0.6068,0.6084,0.6105,0.6122,0.6172,0.6201,0.621,0.623,0.6266,0.6298,0.6301,0.6315,0.6329,0.6331,0.6262,0.6253,0.6245,0.6233,0.6332,0.6332,0.6401,0.6402,0.6403]}]]